map of UST home
UST - Airport
Location
City:  St. Augustine, Florida, United States
Name:Northeast Florida Regional
ICAO:KSGJ
IATA:UST
FAA LID:SGJ

Details
Type:Airport (Part 139 Class I)
Use:Public/Civil
Latitude:2957'33"N (29.959250)
Longitude:8120'23"W (-81.339721)
Datum:WGS 1984
Elevation:9 ft (3 m)
Variation:6.67W (WMM2015 magnetic declination)
-0.09 annual change
Runways:3
Longest:8002 × 150 ft (2439 × 45.5 m), paved

Time
Time Zone:UTC-5 (DST-4)
Local Time:

Weather
METAR:KSGJ 190456Z AUTO 00000KT 10SM CLR 25/22 A3006 RMK AO2 SLP177 T02500217 403170239
TAF:KSGJ 190520Z 1906/2006 VRB03KT P6SM SCT040 BKN250
FM191300 23007KT P6SM SCT030 SCT250
FM191800 13012KT P6SM SCT035

Related Locations
Nearby:
Farthest:USL: 11508 mi / 18521 km
Useless Loop, WA, AU

Find:

   beyond  
but within

Other Information
Maps:
NOTAMs:
Links:
Sources:

  
  • flag of United States
  • flag of Florida
  

Airport Diagram

Airport diagram for UST

Airport diagram PDF

Sectional Chart

Flight Planning
at skyvector.com

Satellite Image

Google Maps Satellite view

 

Copyright © 2004-2018 Karl L. Swartz. All rights reserved.
The Great Circle Mapper name and logo are trademarks of the Great Circle Mapper.
All other trademarks mentioned herein belong to their respective owners.
Please see credits for attibutions and further copyright information.

  Follow gcmap on Facebook Follow gcmap on Twitter Follow gcmap on Google+ GCmap on LinkedIn

hCard Microformat

Geo Microformat